Time,TemperatureF,DewpointF,PressureIn,WindDirection,WindDirectionDegrees,WindSpeedMPH,WindSpeedGustMPH,Humidity,HourlyPrecipIn,Conditions,Clouds,dailyrainin,SoftwareType,DateUTC
2013-01-27 00:00:00,20.0,16.8,30.44,NNW,338,3.0,5.0,87,0.00,,BKN055,0.00,VWS V14.00,2013-01-27 05:00:00,
2013-01-27 00:10:00,19.7,16.7,30.44,NNW,341,3.0,4.0,88,0.00,,BKN055,0.00,VWS V14.00,2013-01-27 05:10:00,
2013-01-27 00:20:00,19.5,16.5,30.44,NNW,342,0.0,4.0,88,0.00,,BKN055,0.00,VWS V14.00,2013-01-27 05:20:00,
2013-01-27 00:30:00,19.5,16.8,30.44,NNW,329,4.0,5.0,89,0.00,,BKN055,0.00,VWS V14.00,2013-01-27 05:30:00,
2013-01-27 00:40:00,19.7,16.7,30.44,NNW,340,4.0,4.0,88,0.00,,BKN055,0.00,VWS V14.00,2013-01-27 05:40:00,
2013-01-27 00:50:00,19.4,16.4,30.44,NNW,336,0.0,4.0,88,0.00,,BKN055,0.00,VWS V14.00,2013-01-27 05:50:00,
2013-01-27 01:00:00,19.1,16.1,30.44,NNW,337,4.0,4.0,88,0.00,,BKN055,0.00,VWS V14.00,2013-01-27 06:00:00,
2013-01-27 01:10:00,18.7,16.0,30.44,NNW,337,2.0,5.0,89,0.00,,BKN055,0.00,VWS V14.00,2013-01-27 06:10:00,
2013-01-27 01:20:00,18.5,15.8,30.43,NNW,337,0.0,4.0,89,0.00,,BKN055,0.00,VWS V14.00,2013-01-27 06:20:00,
2013-01-27 01:30:00,18.3,15.6,30.43,NNW,340,3.0,3.0,89,0.00,,BKN055,0.00,VWS V14.00,2013-01-27 06:30:00,
2013-01-27 01:40:00,18.1,15.7,30.43,NNW,340,2.0,3.0,90,0.00,,BKN055,0.00,VWS V14.00,2013-01-27 06:40:00,
2013-01-27 01:50:00,17.9,15.5,30.43,NNW,342,3.0,4.0,90,0.00,,BKN055,0.00,VWS V14.00,2013-01-27 06:50:00,
2013-01-27 02:00:00,17.9,15.5,30.43,NNW,342,2.0,5.0,90,0.00,,BKN055,0.00,VWS V14.00,2013-01-27 07:00:00,
2013-01-27 02:20:00,17.5,15.1,30.43,NNW,342,4.0,5.0,90,0.00,,BKN055,0.00,VWS V14.00,2013-01-27 07:20:00,
2013-01-27 02:30:00,17.6,15.4,30.43,NNW,341,4.0,6.0,91,0.00,,BKN055,0.00,VWS V14.00,2013-01-27 07:30:00,
2013-01-27 02:40:00,17.5,15.1,30.43,NNW,327,2.0,5.0,90,0.00,,BKN055,0.00,VWS V14.00,2013-01-27 07:40:00,
2013-01-27 02:50:00,17.6,15.4,30.44,NNW,337,3.0,4.0,91,0.00,,BKN055,0.00,VWS V14.00,2013-01-27 07:50:00,
2013-01-27 03:00:00,17.7,15.5,30.44,NNW,340,3.0,5.0,91,0.00,,BKN055,0.00,VWS V14.00,2013-01-27 08:00:00,
2013-01-27 03:10:00,17.5,15.3,30.44,NNW,340,3.0,4.0,91,0.00,,BKN055,0.00,VWS V14.00,2013-01-27 08:10:00,
2013-01-27 03:20:00,17.5,15.3,30.44,NNW,340,3.0,3.0,91,0.00,,BKN055,0.00,VWS V14.00,2013-01-27 08:20:00,
2013-01-27 03:30:00,17.6,15.4,30.44,NNW,340,2.0,4.0,91,0.00,,BKN055,0.00,VWS V14.00,2013-01-27 08:30:00,
2013-01-27 03:40:00,17.3,14.9,30.44,NNW,340,2.0,3.0,90,0.00,,BKN055,0.00,VWS V14.00,2013-01-27 08:40:00,
2013-01-27 03:50:00,17.0,14.8,30.44,NNW,330,2.0,4.0,91,0.00,,BKN055,0.00,VWS V14.00,2013-01-27 08:50:00,
2013-01-27 04:00:00,16.7,14.5,30.43,NNW,337,3.0,4.0,91,0.00,,BKN055,0.00,VWS V14.00,2013-01-27 09:00:00,
2013-01-27 04:10:00,16.9,14.7,30.43,NNW,340,3.0,4.0,91,0.00,,BKN055,0.00,VWS V14.00,2013-01-27 09:10:00,
2013-01-27 04:20:00,17.0,15.1,30.43,NNW,340,2.0,4.0,92,0.00,,BKN055,0.00,VWS V14.00,2013-01-27 09:20:00,
2013-01-27 04:30:00,16.8,14.6,30.42,NNW,340,3.0,4.0,91,0.00,,BKN055,0.00,VWS V14.00,2013-01-27 09:30:00,
2013-01-27 04:40:00,16.5,14.3,30.42,NNW,334,3.0,5.0,91,0.00,,BKN055,0.00,VWS V14.00,2013-01-27 09:40:00,
2013-01-27 04:50:00,16.6,14.7,30.42,NNW,341,2.0,5.0,92,0.00,,BKN055,0.00,VWS V14.00,2013-01-27 09:50:00,
2013-01-27 05:00:00,16.3,14.1,30.42,NNW,340,3.0,4.0,91,0.00,,BKN055,0.00,VWS V14.00,2013-01-27 10:00:00,
2013-01-27 05:10:00,16.2,14.3,30.42,NNW,342,4.0,5.0,92,0.00,,BKN055,0.00,VWS V14.00,2013-01-27 10:10:00,
2013-01-27 05:20:00,16.2,14.3,30.42,NNW,333,2.0,4.0,92,0.00,,BKN055,0.00,VWS V14.00,2013-01-27 10:20:00,
2013-01-27 05:30:00,16.1,14.2,30.42,NNW,337,3.0,4.0,92,0.00,,BKN055,0.00,VWS V14.00,2013-01-27 10:30:00,
2013-01-27 05:40:00,16.1,14.2,30.41,NNW,341,3.0,5.0,92,0.00,,BKN055,0.00,VWS V14.00,2013-01-27 10:40:00,
2013-01-27 05:50:00,15.9,14.0,30.41,NNW,346,2.0,5.0,92,0.00,,BKN055,0.00,VWS V14.00,2013-01-27 10:50:00,
2013-01-27 06:00:00,15.8,13.9,30.42,NNW,336,4.0,4.0,92,0.00,,BKN055,0.00,VWS V14.00,2013-01-27 11:00:00,
2013-01-27 06:10:00,15.7,13.8,30.42,NNW,338,2.0,4.0,92,0.00,,BKN055,0.00,VWS V14.00,2013-01-27 11:10:00,
2013-01-27 06:20:00,15.6,13.7,30.42,NNW,345,2.0,4.0,92,0.00,,BKN055,0.00,VWS V14.00,2013-01-27 11:20:00,
2013-01-27 06:30:00,15.5,13.6,30.43,NNW,345,3.0,4.0,92,0.00,,BKN055,0.00,VWS V14.00,2013-01-27 11:30:00,
2013-01-27 06:40:00,15.5,13.6,30.44,NNW,344,3.0,4.0,92,0.00,,BKN055,0.00,VWS V14.00,2013-01-27 11:40:00,
2013-01-27 06:50:00,15.5,13.6,30.44,NNW,344,3.0,4.0,92,0.00,,BKN055,0.00,VWS V14.00,2013-01-27 11:50:00,
2013-01-27 07:00:00,15.8,13.9,30.44,NNW,344,3.0,4.0,92,0.00,,BKN055,0.00,VWS V14.00,2013-01-27 12:00:00,
2013-01-27 07:10:00,15.8,13.9,30.44,NNW,344,2.0,4.0,92,0.00,,BKN055,0.00,VWS V14.00,2013-01-27 12:10:00,
2013-01-27 07:20:00,15.8,13.9,30.44,NNW,344,0.0,4.0,92,0.00,,BKN055,0.00,VWS V14.00,2013-01-27 12:20:00,
2013-01-27 07:30:00,15.8,13.9,30.45,NNW,344,1.0,3.0,92,0.00,,BKN055,0.00,VWS V14.00,2013-01-27 12:30:00,
2013-01-27 07:40:00,15.9,14.0,30.44,NNW,344,3.0,4.0,92,0.00,,BKN055,0.00,VWS V14.00,2013-01-27 12:40:00,
2013-01-27 07:50:00,16.3,14.4,30.44,NNW,345,3.0,3.0,92,0.00,,BKN055,0.00,VWS V14.00,2013-01-27 12:50:00,
2013-01-27 08:00:00,16.6,14.9,30.43,NNW,344,2.0,4.0,93,0.00,,BKN055,0.00,VWS V14.00,2013-01-27 13:00:00,
2013-01-27 08:10:00,17.1,15.4,30.44,NNW,344,3.0,4.0,93,0.00,,BKN055,0.00,VWS V14.00,2013-01-27 13:10:00,
2013-01-27 08:20:00,17.8,16.1,30.44,NNW,344,0.0,4.0,93,0.00,,BKN055,0.00,VWS V14.00,2013-01-27 13:20:00,
2013-01-27 08:30:00,19.7,18.3,30.44,NNW,345,2.0,3.0,94,0.00,,BKN055,0.00,VWS V14.00,2013-01-27 13:30:00,
2013-01-27 08:40:00,21.0,19.3,30.44,NNW,348,2.0,3.0,93,0.00,,BKN055,0.00,VWS V14.00,2013-01-27 13:40:00,
2013-01-27 08:50:00,21.6,19.6,30.43,NNW,348,0.0,3.0,92,0.00,,BKN055,0.00,VWS V14.00,2013-01-27 13:50:00,
2013-01-27 09:00:00,22.8,20.8,30.43,North,355,0.0,3.0,92,0.00,,BKN055,0.00,VWS V14.00,2013-01-27 14:00:00,
2013-01-27 09:10:00,24.3,22.1,30.42,East,80,2.0,5.0,91,0.00,,BKN055,0.00,VWS V14.00,2013-01-27 14:10:00,
2013-01-27 09:20:00,25.5,22.5,30.43,East,96,3.0,4.0,88,0.00,,BKN055,0.00,VWS V14.00,2013-01-27 14:20:00,
2013-01-27 09:30:00,26.2,22.6,30.42,East,80,2.0,5.0,86,0.00,,BKN055,0.00,VWS V14.00,2013-01-27 14:30:00,
2013-01-27 09:40:00,26.8,23.2,30.42,East,79,0.0,3.0,86,0.00,,BKN055,0.00,VWS V14.00,2013-01-27 14:40:00,
2013-01-27 09:50:00,27.3,23.4,30.42,ENE,71,2.0,4.0,85,0.00,,BKN055,0.00,VWS V14.00,2013-01-27 14:50:00,
2013-01-27 10:00:00,27.9,24.0,30.42,NE,53,3.0,4.0,85,0.00,,BKN055,0.00,VWS V14.00,2013-01-27 15:00:00,
2013-01-27 10:10:00,28.2,23.7,30.42,ENE,63,3.0,5.0,83,0.00,,BKN055,0.00,VWS V14.00,2013-01-27 15:10:00,
2013-01-27 10:20:00,28.7,24.2,30.42,ENE,69,2.0,5.0,83,0.00,,BKN055,0.00,VWS V14.00,2013-01-27 15:20:00,
2013-01-27 10:30:00,29.3,25.1,30.42,NE,47,4.0,5.0,84,0.00,,BKN055,0.00,VWS V14.00,2013-01-27 15:30:00,
2013-01-27 10:40:00,29.8,25.0,30.42,East,80,0.0,5.0,82,0.00,,BKN055,0.00,VWS V14.00,2013-01-27 15:40:00,
2013-01-27 10:50:00,30.2,25.1,30.42,East,90,0.0,4.0,81,0.00,,BKN055,0.00,VWS V14.00,2013-01-27 15:50:00,
2013-01-27 11:00:00,30.6,25.5,30.43,East,95,0.0,5.0,81,0.00,,BKN055,0.00,VWS V14.00,2013-01-27 16:00:00,
2013-01-27 11:10:00,31.2,26.1,30.42,ESE,108,0.0,0.0,81,0.00,,BKN055,0.00,VWS V14.00,2013-01-27 16:10:00,
2013-01-27 11:20:00,31.8,26.0,30.42,East,80,0.0,3.0,79,0.00,,BKN055,0.00,VWS V14.00,2013-01-27 16:20:00,
2013-01-27 11:30:00,32.3,26.2,30.42,ESE,118,0.0,3.0,78,0.00,,BKN055,0.00,VWS V14.00,2013-01-27 16:30:00,
2013-01-27 11:40:00,32.8,26.7,30.42,ESE,103,0.0,3.0,78,0.00,,BKN055,0.00,VWS V14.00,2013-01-27 16:40:00,
2013-01-27 11:50:00,33.4,26.7,30.42,East,81,0.0,3.0,76,0.00,,BKN055,0.00,VWS V14.00,2013-01-27 16:50:00,
2013-01-27 12:00:00,33.7,26.6,30.42,ESE,109,0.0,3.0,75,0.00,,BKN055,0.00,VWS V14.00,2013-01-27 17:00:00,
2013-01-27 12:10:00,34.1,26.4,30.41,East,96,2.0,4.0,73,0.00,,BKN055,0.00,VWS V14.00,2013-01-27 17:10:00,
2013-01-27 12:20:00,34.4,27.0,30.40,ENE,65,0.0,5.0,74,0.00,,BKN055,0.00,VWS V14.00,2013-01-27 17:20:00,
2013-01-27 12:30:00,35.0,27.2,30.39,NE,44,3.0,5.0,73,0.00,,BKN055,0.00,VWS V14.00,2013-01-27 17:30:00,
2013-01-27 12:40:00,35.2,27.1,30.39,East,92,0.0,4.0,72,0.00,,BKN055,0.00,VWS V14.00,2013-01-27 17:40:00,
2013-01-27 12:50:00,35.9,27.4,30.39,SSE,155,0.0,3.0,71,0.00,,BKN055,0.00,VWS V14.00,2013-01-27 17:50:00,
2013-01-27 13:00:00,36.4,27.9,30.39,ESE,119,0.0,3.0,71,0.00,,BKN055,0.00,VWS V14.00,2013-01-27 18:00:00,
2013-01-27 13:10:00,36.9,28.0,30.38,ESE,119,0.0,0.0,70,0.00,,BKN055,0.00,VWS V14.00,2013-01-27 18:10:00,
2013-01-27 13:20:00,37.4,28.2,30.36,ESE,120,0.0,2.0,69,0.00,,BKN055,0.00,VWS V14.00,2013-01-27 18:20:00,
2013-01-27 13:30:00,37.6,28.0,30.36,NE,54,2.0,5.0,68,0.00,,BKN055,0.00,VWS V14.00,2013-01-27 18:30:00,
2013-01-27 13:40:00,37.9,28.3,30.35,ENE,75,0.0,4.0,68,0.00,,BKN055,0.00,VWS V14.00,2013-01-27 18:40:00,
2013-01-27 13:50:00,38.3,28.0,30.34,ENE,64,3.0,5.0,66,0.00,,BKN055,0.00,VWS V14.00,2013-01-27 18:50:00,
2013-01-27 14:00:00,38.8,28.1,30.33,ENE,78,2.0,6.0,65,0.00,,BKN055,0.00,VWS V14.00,2013-01-27 19:00:00,
2013-01-27 14:10:00,39.4,28.6,30.33,ENE,61,2.0,5.0,65,0.00,,BKN055,0.00,VWS V14.00,2013-01-27 19:10:00,
2013-01-27 14:20:00,39.8,28.6,30.32,NE,46,3.0,6.0,64,0.00,,BKN055,0.00,VWS V14.00,2013-01-27 19:20:00,
2013-01-27 14:30:00,40.1,28.9,30.31,NE,54,5.0,7.0,64,0.00,,BKN055,0.00,VWS V14.00,2013-01-27 19:30:00,
2013-01-27 14:40:00,40.2,28.6,30.32,NE,44,3.0,5.0,63,0.00,,BKN055,0.00,VWS V14.00,2013-01-27 19:40:00,
2013-01-27 14:50:00,40.7,29.5,30.31,East,89,2.0,4.0,64,0.00,,BKN055,0.00,VWS V14.00,2013-01-27 19:50:00,
2013-01-27 15:00:00,41.2,29.2,30.31,East,82,0.0,5.0,62,0.00,,BKN055,0.00,VWS V14.00,2013-01-27 20:00:00,
2013-01-27 15:10:00,41.5,28.7,30.30,ESE,103,0.0,4.0,60,0.00,,BKN055,0.00,VWS V14.00,2013-01-27 20:10:00,
2013-01-27 15:20:00,41.6,28.8,30.29,ENE,78,2.0,4.0,60,0.00,,BKN055,0.00,VWS V14.00,2013-01-27 20:20:00,
2013-01-27 15:30:00,41.7,28.9,30.29,East,88,0.0,3.0,60,0.00,,BKN055,0.00,VWS V14.00,2013-01-27 20:30:00,
2013-01-27 15:40:00,41.9,29.0,30.30,East,88,0.0,1.0,60,0.00,,BKN055,0.00,VWS V14.00,2013-01-27 20:40:00,
2013-01-27 15:50:00,42.2,28.9,30.29,East,88,0.0,0.0,59,0.00,,BKN055,0.00,VWS V14.00,2013-01-27 20:50:00,
2013-01-27 16:00:00,42.4,28.7,30.29,East,79,0.0,3.0,58,0.00,,BKN055,0.00,VWS V14.00,2013-01-27 21:00:00,
2013-01-27 16:10:00,42.6,29.7,30.29,ENE,78,0.0,1.0,60,0.00,,BKN055,0.00,VWS V14.00,2013-01-27 21:10:00,
2013-01-27 16:20:00,42.5,29.6,30.28,ENE,78,0.0,0.0,60,0.00,,BKN055,0.00,VWS V14.00,2013-01-27 21:20:00,
2013-01-27 16:30:00,42.6,30.5,30.27,ENE,78,0.0,0.0,62,0.00,,BKN055,0.00,VWS V14.00,2013-01-27 21:30:00,
2013-01-27 16:40:00,42.5,30.4,30.27,ESE,108,0.0,4.0,62,0.00,,BKN055,0.00,VWS V14.00,2013-01-27 21:40:00,
2013-01-27 16:50:00,42.6,29.7,30.26,ESE,107,0.0,1.0,60,0.00,,BKN055,0.00,VWS V14.00,2013-01-27 21:50:00,
2013-01-27 17:00:00,42.6,29.7,30.26,ESE,107,0.0,0.0,60,0.00,,BKN055,0.00,VWS V14.00,2013-01-27 22:00:00,
2013-01-27 17:10:00,42.6,30.5,30.26,ESE,107,0.0,0.0,62,0.00,,BKN055,0.00,VWS V14.00,2013-01-27 22:10:00,
2013-01-27 17:20:00,42.3,31.0,30.26,ESE,108,0.0,0.0,64,0.00,,BKN055,0.00,VWS V14.00,2013-01-27 22:20:00,
2013-01-27 17:30:00,42.1,31.2,30.26,ESE,108,0.0,0.0,65,0.00,,BKN055,0.00,VWS V14.00,2013-01-27 22:30:00,
2013-01-27 17:40:00,42.0,30.3,30.26,ESE,109,0.0,1.0,63,0.00,,BKN055,0.00,VWS V14.00,2013-01-27 22:40:00,
2013-01-27 17:50:00,42.0,30.7,30.25,ESE,108,0.0,0.0,64,0.00,,BKN055,0.00,VWS V14.00,2013-01-27 22:50:00,
2013-01-27 18:00:00,42.0,31.1,30.25,ESE,109,0.0,2.0,65,0.00,,BKN055,0.00,VWS V14.00,2013-01-27 23:00:00,
2013-01-27 18:10:00,42.1,31.2,30.26,WSW,247,0.0,4.0,65,0.00,,BKN055,0.00,VWS V14.00,2013-01-27 23:10:00,
2013-01-27 18:20:00,42.0,31.1,30.25,WSW,246,0.0,0.0,65,0.00,,BKN055,0.00,VWS V14.00,2013-01-27 23:20:00,
2013-01-27 18:30:00,41.8,32.4,30.25,SSE,156,0.0,3.0,69,0.00,,BKN055,0.00,VWS V14.00,2013-01-27 23:30:00,
2013-01-27 18:40:00,41.6,32.9,30.25,SSE,155,0.0,1.0,71,0.00,,BKN055,0.00,VWS V14.00,2013-01-27 23:40:00,
2013-01-27 18:50:00,41.3,33.3,30.25,SSE,155,0.0,0.0,73,0.00,,BKN055,0.00,VWS V14.00,2013-01-27 23:50:00,
2013-01-27 19:00:00,40.8,34.2,30.25,SSE,155,0.0,1.0,77,0.00,,BKN055,0.00,VWS V14.00,2013-01-28 00:00:00,
2013-01-27 19:10:00,39.9,34.9,30.25,SSE,158,1.0,2.0,82,0.01,,BKN055,0.01,VWS V14.00,2013-01-28 00:10:00,
2013-01-27 19:20:00,39.0,35.2,30.25,SSE,157,0.0,1.0,86,0.01,,BKN055,0.01,VWS V14.00,2013-01-28 00:20:00,
2013-01-27 19:30:00,38.5,35.5,30.25,SSE,157,0.0,0.0,89,0.02,,BKN055,0.02,VWS V14.00,2013-01-28 00:30:00,
2013-01-27 19:40:00,38.0,35.3,30.24,SSE,157,0.0,0.0,90,0.03,,BKN055,0.03,VWS V14.00,2013-01-28 00:40:00,
2013-01-27 19:50:00,37.7,35.3,30.24,North,9,0.0,2.0,91,0.04,,BKN055,0.04,VWS V14.00,2013-01-28 00:50:00,
2013-01-27 20:00:00,37.7,35.6,30.24,North,9,0.0,0.0,92,0.04,,BKN055,0.04,VWS V14.00,2013-01-28 01:00:00,
2013-01-27 20:10:00,38.0,36.2,30.24,North,9,0.0,0.0,93,0.05,,BKN055,0.05,VWS V14.00,2013-01-28 01:10:00,
2013-01-27 20:20:00,38.2,36.4,30.23,North,11,0.0,0.0,93,0.04,,BKN055,0.05,VWS V14.00,2013-01-28 01:20:00,
2013-01-27 20:30:00,38.3,36.5,30.22,SE,125,0.0,3.0,93,0.04,,BKN055,0.05,VWS V14.00,2013-01-28 01:30:00,
2013-01-27 20:40:00,38.7,36.8,30.22,SE,124,0.0,0.0,93,0.04,,BKN055,0.06,VWS V14.00,2013-01-28 01:40:00,
2013-01-27 20:50:00,39.0,37.2,30.22,SE,130,0.0,2.0,93,0.03,,BKN055,0.06,VWS V14.00,2013-01-28 01:50:00,
2013-01-27 21:00:00,39.0,37.2,30.22,South,180,0.0,2.0,93,0.03,,BKN055,0.07,VWS V14.00,2013-01-28 02:00:00,
2013-01-27 21:10:00,39.0,37.4,30.22,South,180,0.0,0.0,94,0.04,,BKN055,0.08,VWS V14.00,2013-01-28 02:10:00,
2013-01-27 21:20:00,38.9,37.3,30.21,South,180,0.0,0.0,94,0.04,,BKN055,0.09,VWS V14.00,2013-01-28 02:20:00,
2013-01-27 21:30:00,39.1,37.5,30.21,South,180,0.0,2.0,94,0.05,,BKN055,0.10,VWS V14.00,2013-01-28 02:30:00,
2013-01-27 21:40:00,39.4,38.1,30.21,SSW,213,1.0,5.0,95,0.06,,BKN055,0.11,VWS V14.00,2013-01-28 02:40:00,
2013-01-27 21:50:00,39.7,38.4,30.21,SSW,194,0.0,2.0,95,0.06,,BKN055,0.12,VWS V14.00,2013-01-28 02:50:00,
2013-01-27 22:00:00,39.7,38.4,30.20,SSW,194,0.0,0.0,95,0.06,,BKN055,0.12,VWS V14.00,2013-01-28 03:00:00,
2013-01-27 22:10:00,39.6,38.3,30.20,SSW,194,0.0,1.0,95,0.06,,BKN055,0.13,VWS V14.00,2013-01-28 03:10:00,
2013-01-27 22:20:00,39.5,38.2,30.20,SSW,192,0.0,2.0,95,0.05,,BKN055,0.13,VWS V14.00,2013-01-28 03:20:00,
2013-01-27 22:30:00,39.5,38.5,30.19,SSW,192,0.0,0.0,96,0.05,,BKN055,0.14,VWS V14.00,2013-01-28 03:30:00,
2013-01-27 22:40:00,39.5,38.5,30.19,SSW,192,0.0,0.0,96,0.04,,BKN055,0.14,VWS V14.00,2013-01-28 03:40:00,
2013-01-27 22:50:00,39.6,38.6,30.18,SSW,192,0.0,0.0,96,0.04,,BKN055,0.15,VWS V14.00,2013-01-28 03:50:00,
2013-01-27 23:00:00,39.6,38.6,30.18,SSW,192,0.0,0.0,96,0.03,,BKN055,0.15,VWS V14.00,2013-01-28 04:00:00,
2013-01-27 23:10:00,39.8,38.8,30.18,SSW,192,0.0,0.0,96,0.04,,BKN055,0.16,VWS V14.00,2013-01-28 04:10:00,
2013-01-27 23:20:00,40.1,39.3,30.18,SSW,192,0.0,0.0,97,0.03,,BKN055,0.16,VWS V14.00,2013-01-28 04:20:00,
2013-01-27 23:30:00,40.2,39.4,30.18,SSW,192,0.0,0.0,97,0.04,,BKN055,0.17,VWS V14.00,2013-01-28 04:30:00,
2013-01-27 23:40:00,40.3,39.5,30.17,SSW,192,0.0,0.0,97,0.03,,BKN055,0.17,VWS V14.00,2013-01-28 04:40:00,
2013-01-27 23:50:00,40.6,39.8,30.17,SSW,192,0.0,0.0,97,0.03,,BKN055,0.17,VWS V14.00,2013-01-28 04:50:00,